sat.trackr.live / text

‹ back to catalog

GONETS-M 20

NORAD 47227 · 2020-091A

PAYLOAD ACTIVE UNKNOWN

§ Identity

Operator
Country
CIS
Launch date
2020-12-03
Launch site
PLMSC
Launch vehicle
Mass (kg)
RCS (m²)

External: N2YO · Heavens-Above · Gunter

§ Orbital elements

Epoch: 2026-09-20T05:36:09.106272Z

Period
115.86 min
Inclination
82.5002°
Eccentricity
0.0020497
Mean motion
12.42896270 rev/d
Perigee alt
1,478.2 km
Apogee alt
1,510.5 km
Semi-major
7,872.5 km
B*
-2.6009e-6
RAAN
243.3422°
Arg perigee
337.1371°
Mean anomaly
22.8795°
Rev number
26,288

§ Raw data

GONETS-M 201 47227U 20091A   26263.23343873  .00000009  00000+0 -26009-5 0  99972 47227  82.5002 243.3422 0020497 337.1371  22.8795 12.42896270262888

JSON: /api/v1/satellites/47227 · /tle

For live sub-satellite position, see the globe view (requires WebGL).

§ Visibility from observer

Set your observer location to see the next 7 days of passes ≥ 10°. The values pass through the URL so the page stays shareable.

No JS? Fill the form by hand. The geolocation button needs JavaScript.

§ Radio — SatNOGS DB

ModeDescriptionDownlinkUplink
FM UHF Unknown 388.687 MHz
FM UHF Unknown 388.787 MHz
FM UHF Unknown 262.910 MHz

3 transmitters · refreshed weekly from db.satnogs.org